This is the latest recevied weather packets stored in our database for station/object KC4GS-13. If no packets are shown the sender has not sent any weather packets the latest 10 day(s).
| Time | Temp. | Humidity | Pressure | Rain* | Wind** | Luminosity | Snow |
|---|---|---|---|---|---|---|---|
| 1787421773 | 31.67° C | 68% | 1016.4 hPa | 0 mm | - | 858 W/m² | - |
| 1787421467 | 31.67° C | 68% | 1016.4 hPa | 0 mm | - | 234 W/m² | - |
| 1787421163 | 31.67° C | 68% | 1016.3 hPa | 0 mm | - | 263 W/m² | - |
| 1787420857 | 31.67° C | 68% | 1016.5 hPa | 0 mm | - | 179 W/m² | - |
| 1787420554 | 31.67° C | 68% | 1016.5 hPa | 0 mm | - | 155 W/m² | - |
| 1787420244 | 31.67° C | 69% | 1016.4 hPa | 0 mm | - | 194 W/m² | - |
| 1787419941 | 31.67° C | 70% | 1016.4 hPa | 0 mm | - | 766 W/m² | - |
| 1787419637 | 31.11° C | 69% | 1016.5 hPa | 0 mm | - | 173 W/m² | - |
| 1787419336 | 31.11° C | 68% | 1016.5 hPa | 0 mm | - | 162 W/m² | - |
| 1787419033 | 31.67° C | 69% | 1016.5 hPa | 0 mm | - | 121 W/m² | - |
| 1787418733 | 31.67° C | 68% | 1016.8 hPa | 0 mm | - | 149 W/m² | - |
| 1787418429 | 32.22° C | 68% | 1016.7 hPa | 0 mm | - | 430 W/m² | - |
| 1787418126 | 32.22° C | 67% | 1016.7 hPa | 0 mm | - | 186 W/m² | - |
| 1787417821 | 32.22° C | 68% | 1016.9 hPa | 0 mm | - | 424 W/m² | - |
| 1787417516 | 31.67° C | 70% | 1016.6 hPa | 0 mm | - | 292 W/m² | - |
| 1787417211 | 31.11° C | 70% | 1016.8 hPa | 0 mm | - | 282 W/m² | - |
| 1787416907 | 31.11° C | 71% | 1016.8 hPa | 0 mm | - | 233 W/m² | - |
| 1787416602 | 31.11° C | 71% | 1016.9 hPa | 0 mm | - | 186 W/m² | - |
| 1787416297 | 31.11° C | 70% | 1017 hPa | 0 mm | - | 257 W/m² | - |
| 1787415992 | 30.56° C | 72% | 1016.9 hPa | 0 mm | - | 201 W/m² | - |
| 1787415687 | 30.56° C | 72% | 1017.1 hPa | 0 mm | - | 252 W/m² | - |
| 1787415382 | 30.56° C | 73% | 1017.2 hPa | 0 mm | - | 293 W/m² | - |
| 1787415077 | 30.56° C | 73% | 1017.3 hPa | 0 mm | - | 326 W/m² | - |
| 1787414773 | 30.56° C | 72% | 1017.2 hPa | 0 mm | - | 316 W/m² | - |
| 1787414468 | 30° C | 73% | 1017.4 hPa | 0 mm | - | 297 W/m² | - |
* Rain latest hour (hover to see other rain measurements)
** Current wind speed in m/s (hover to see current wind gust speed)